Time,TemperatureF,DewpointF,PressureIn,WindDirection,WindDirectionDegrees,WindSpeedMPH,WindSpeedGustMPH,Humidity,HourlyPrecipIn,Conditions,Clouds,dailyrainin,SoftwareType,DateUTC
2013-02-11 00:00:00,44.6,37.2,30.18,South,176,0.0,2.0,75,0.02,,,0.02,WUHU216DAVISVP2,2013-02-11 05:00:00,
2013-02-11 00:05:00,44.5,37.8,30.18,South,181,0.0,2.0,77,0.01,,,0.00,WUHU216DAVISVP2,2013-02-11 05:05:00,
2013-02-11 00:10:00,44.5,38.1,30.18,SW,216,0.0,4.0,78,0.01,,,0.00,WUHU216DAVISVP2,2013-02-11 05:10:00,
2013-02-11 00:15:00,44.3,37.9,30.18,SW,215,0.0,4.0,78,0.02,,,0.01,WUHU216DAVISVP2,2013-02-11 05:15:00,
2013-02-11 00:20:00,44.2,37.8,30.18,ESE,123,0.0,1.0,78,0.02,,,0.01,WUHU216DAVISVP2,2013-02-11 05:20:00,
2013-02-11 00:25:00,44.1,37.7,30.18,SSE,152,0.0,1.0,78,0.02,,,0.01,WUHU216DAVISVP2,2013-02-11 05:25:00,
2013-02-11 00:30:00,44.1,38.0,30.17,SE,145,0.0,2.0,79,0.01,,,0.01,WUHU216DAVISVP2,2013-02-11 05:30:00,
2013-02-11 00:35:00,43.9,37.8,30.17,SE,144,0.0,2.0,79,0.01,,,0.01,WUHU216DAVISVP2,2013-02-11 05:35:00,
2013-02-11 00:40:00,43.9,37.8,30.17,South,179,0.0,2.0,79,0.01,,,0.01,WUHU216DAVISVP2,2013-02-11 05:40:00,
2013-02-11 00:45:00,43.9,37.8,30.17,SSW,203,0.0,2.0,79,0.01,,,0.01,WUHU216DAVISVP2,2013-02-11 05:45:00,
2013-02-11 00:50:00,43.9,38.2,30.17,SW,236,0.0,2.0,80,0.01,,,0.01,WUHU216DAVISVP2,2013-02-11 05:50:00,
2013-02-11 00:55:00,43.9,38.2,30.17,SW,230,0.0,2.0,80,0.01,,,0.01,WUHU216DAVISVP2,2013-02-11 05:55:00,
2013-02-11 01:00:00,43.9,38.2,30.16,West,268,0.0,4.0,80,0.01,,,0.01,WUHU216DAVISVP2,2013-02-11 06:00:00,
2013-02-11 01:05:00,44.1,38.3,30.16,ESE,107,1.0,4.0,80,0.01,,,0.01,WUHU216DAVISVP2,2013-02-11 06:05:00,
2013-02-11 01:10:00,44.1,38.3,30.16,SSW,208,0.0,2.0,80,0.01,,,0.01,WUHU216DAVISVP2,2013-02-11 06:10:00,
2013-02-11 01:15:00,44.2,38.4,30.14,South,181,0.0,2.0,80,0.00,,,0.01,WUHU216DAVISVP2,2013-02-11 06:15:00,
2013-02-11 01:20:00,44.2,38.4,30.14,ESE,107,0.0,2.0,80,0.00,,,0.01,WUHU216DAVISVP2,2013-02-11 06:20:00,
2013-02-11 01:25:00,44.3,38.5,30.14,ESE,107,0.0,2.0,80,0.00,,,0.01,WUHU216DAVISVP2,2013-02-11 06:25:00,
2013-02-11 01:30:00,44.3,38.5,30.14,SW,226,0.0,6.0,80,0.00,,,0.01,WUHU216DAVISVP2,2013-02-11 06:30:00,
2013-02-11 01:35:00,44.5,39.0,30.14,SW,215,0.0,6.0,81,0.00,,,0.01,WUHU216DAVISVP2,2013-02-11 06:35:00,
2013-02-11 01:40:00,44.5,39.0,30.14,SSW,212,0.0,1.0,81,0.00,,,0.01,WUHU216DAVISVP2,2013-02-11 06:40:00,
2013-02-11 01:45:00,44.6,39.1,30.13,ESE,102,0.0,2.0,81,0.00,,,0.01,WUHU216DAVISVP2,2013-02-11 06:45:00,
2013-02-11 01:50:00,44.9,39.4,30.13,SE,144,0.0,2.0,81,0.00,,,0.01,WUHU216DAVISVP2,2013-02-11 06:50:00,
2013-02-11 01:55:00,45.1,39.6,30.13,SSE,148,0.0,1.0,81,0.00,,,0.01,WUHU216DAVISVP2,2013-02-11 06:55:00,
2013-02-11 02:00:00,45.2,39.7,30.13,South,188,0.0,4.0,81,0.00,,,0.01,WUHU216DAVISVP2,2013-02-11 07:00:00,
2013-02-11 02:05:00,45.4,40.2,30.13,SW,233,1.0,4.0,82,0.00,,,0.01,WUHU216DAVISVP2,2013-02-11 07:05:00,
2013-02-11 02:10:00,45.5,40.3,30.13,ESE,113,0.0,4.0,82,0.00,,,0.01,WUHU216DAVISVP2,2013-02-11 07:10:00,
2013-02-11 02:15:00,45.7,40.5,30.14,ESE,114,0.0,4.0,82,0.00,,,0.01,WUHU216DAVISVP2,2013-02-11 07:15:00,
2013-02-11 02:20:00,45.8,40.6,30.14,ESE,109,0.0,2.0,82,0.00,,,0.01,WUHU216DAVISVP2,2013-02-11 07:20:00,
2013-02-11 02:25:00,46.0,40.8,30.14,ESE,109,0.0,2.0,82,0.00,,,0.01,WUHU216DAVISVP2,2013-02-11 07:25:00,
2013-02-11 02:30:00,46.0,40.8,30.13,ESE,109,0.0,1.0,82,0.00,,,0.01,WUHU216DAVISVP2,2013-02-11 07:30:00,
2013-02-11 02:35:00,46.1,40.9,30.13,ESE,112,0.0,1.0,82,0.00,,,0.01,WUHU216DAVISVP2,2013-02-11 07:35:00,
2013-02-11 02:40:00,46.2,41.3,30.13,WSW,240,0.0,1.0,83,0.00,,,0.01,WUHU216DAVISVP2,2013-02-11 07:40:00,
2013-02-11 02:45:00,46.2,41.3,30.12,WSW,240,0.0,1.0,83,0.00,,,0.01,WUHU216DAVISVP2,2013-02-11 07:45:00,
2013-02-11 02:50:00,46.4,41.5,30.12,SW,226,0.0,1.0,83,0.00,,,0.01,WUHU216DAVISVP2,2013-02-11 07:50:00,
2013-02-11 02:55:00,46.4,41.5,30.12,SW,226,0.0,1.0,83,0.00,,,0.01,WUHU216DAVISVP2,2013-02-11 07:55:00,
2013-02-11 03:00:00,46.5,41.6,30.12,SW,226,0.0,4.0,83,0.00,,,0.01,WUHU216DAVISVP2,2013-02-11 08:00:00,
2013-02-11 03:05:00,46.5,41.6,30.12,SW,226,0.0,4.0,83,0.00,,,0.01,WUHU216DAVISVP2,2013-02-11 08:05:00,
2013-02-11 03:10:00,46.8,41.9,30.12,ESE,114,0.0,4.0,83,0.00,,,0.01,WUHU216DAVISVP2,2013-02-11 08:10:00,
2013-02-11 03:15:00,46.8,41.9,30.12,ESE,113,0.0,4.0,83,0.00,,,0.01,WUHU216DAVISVP2,2013-02-11 08:15:00,
2013-02-11 03:20:00,47.0,42.1,30.12,ESE,110,1.0,1.0,83,0.00,,,0.01,WUHU216DAVISVP2,2013-02-11 08:20:00,
2013-02-11 03:25:00,47.0,42.1,30.12,NNE,17,0.0,2.0,83,0.00,,,0.01,WUHU216DAVISVP2,2013-02-11 08:25:00,
2013-02-11 03:30:00,47.1,42.5,30.11,NNE,17,0.0,2.0,84,0.00,,,0.01,WUHU216DAVISVP2,2013-02-11 08:30:00,
2013-02-11 03:35:00,47.1,42.5,30.11,NNE,17,0.0,0.0,84,0.00,,,0.01,WUHU216DAVISVP2,2013-02-11 08:35:00,
2013-02-11 03:40:00,47.3,42.7,30.11,NNE,17,0.0,0.0,84,0.00,,,0.01,WUHU216DAVISVP2,2013-02-11 08:40:00,
2013-02-11 03:45:00,47.4,42.8,30.09,South,179,0.0,2.0,84,0.00,,,0.01,WUHU216DAVISVP2,2013-02-11 08:45:00,
2013-02-11 03:50:00,47.4,42.8,30.09,South,179,0.0,2.0,84,0.00,,,0.01,WUHU216DAVISVP2,2013-02-11 08:50:00,
2013-02-11 03:55:00,47.6,43.0,30.09,WSW,241,0.0,0.0,84,0.00,,,0.01,WUHU216DAVISVP2,2013-02-11 08:55:00,
2013-02-11 04:00:00,47.6,43.0,30.09,WSW,241,0.0,0.0,84,0.00,,,0.01,WUHU216DAVISVP2,2013-02-11 09:00:00,
2013-02-11 04:05:00,47.6,43.0,30.09,WSW,241,0.0,0.0,84,0.00,,,0.01,WUHU216DAVISVP2,2013-02-11 09:05:00,
2013-02-11 04:10:00,47.6,43.3,30.09,WSW,241,0.0,0.0,85,0.00,,,0.01,WUHU216DAVISVP2,2013-02-11 09:10:00,
2013-02-11 04:15:00,47.6,43.3,30.09,WSW,241,0.0,0.0,85,0.00,,,0.01,WUHU216DAVISVP2,2013-02-11 09:15:00,
2013-02-11 04:20:00,47.6,43.3,30.09,WSW,241,0.0,0.0,85,0.00,,,0.01,WUHU216DAVISVP2,2013-02-11 09:20:00,
2013-02-11 04:25:00,47.6,43.3,30.09,WSW,241,0.0,0.0,85,0.00,,,0.01,WUHU216DAVISVP2,2013-02-11 09:25:00,
2013-02-11 04:30:00,47.7,43.4,30.08,WSW,241,0.0,0.0,85,0.00,,,0.01,WUHU216DAVISVP2,2013-02-11 09:30:00,
2013-02-11 04:35:00,47.6,43.3,30.08,WSW,241,0.0,0.0,85,0.00,,,0.01,WUHU216DAVISVP2,2013-02-11 09:35:00,
2013-02-11 04:40:00,47.7,43.4,30.08,WSW,241,0.0,0.0,85,0.00,,,0.01,WUHU216DAVISVP2,2013-02-11 09:40:00,
2013-02-11 04:45:00,47.7,43.4,30.08,WSW,241,0.0,0.0,85,0.00,,,0.01,WUHU216DAVISVP2,2013-02-11 09:45:00,
2013-02-11 04:50:00,47.7,43.4,30.08,WSW,241,0.0,0.0,85,0.00,,,0.01,WUHU216DAVISVP2,2013-02-11 09:50:00,
2013-02-11 04:56:00,47.9,43.6,30.08,WSW,241,0.0,0.0,85,0.00,,,0.01,WUHU216DAVISVP2,2013-02-11 09:56:00,
2013-02-11 05:01:00,47.9,43.6,30.08,WSW,241,0.0,0.0,85,0.00,,,0.01,WUHU216DAVISVP2,2013-02-11 10:01:00,
2013-02-11 05:07:00,48.0,43.7,30.08,WSW,241,0.0,0.0,85,0.00,,,0.01,WUHU216DAVISVP2,2013-02-11 10:07:00,
2013-02-11 05:12:00,48.0,44.0,30.08,WSW,241,0.0,0.0,86,0.00,,,0.01,WUHU216DAVISVP2,2013-02-11 10:12:00,
2013-02-11 05:17:00,48.2,44.2,30.09,WSW,241,0.0,0.0,86,0.00,,,0.01,WUHU216DAVISVP2,2013-02-11 10:17:00,
2013-02-11 05:22:00,48.2,44.2,30.09,WSW,241,0.0,0.0,86,0.00,,,0.01,WUHU216DAVISVP2,2013-02-11 10:22:00,
2013-02-11 05:27:00,48.3,44.3,30.09,WSW,241,0.0,0.0,86,0.00,,,0.01,WUHU216DAVISVP2,2013-02-11 10:27:00,
2013-02-11 05:32:00,48.5,44.5,30.08,WSW,241,0.0,0.0,86,0.00,,,0.01,WUHU216DAVISVP2,2013-02-11 10:32:00,
2013-02-11 05:37:00,48.6,44.9,30.08,WSW,241,0.0,0.0,87,0.00,,,0.01,WUHU216DAVISVP2,2013-02-11 10:37:00,
2013-02-11 05:42:00,48.8,45.1,30.08,WSW,241,0.0,1.0,87,0.00,,,0.01,WUHU216DAVISVP2,2013-02-11 10:42:00,
2013-02-11 05:47:00,48.8,45.1,30.08,WSW,241,0.0,1.0,87,0.00,,,0.01,WUHU216DAVISVP2,2013-02-11 10:47:00,
2013-02-11 05:52:00,49.1,45.4,30.08,WSW,241,0.0,1.0,87,0.00,,,0.01,WUHU216DAVISVP2,2013-02-11 10:52:00,
2013-02-11 05:57:00,49.2,45.5,30.08,WSW,241,0.0,1.0,87,0.00,,,0.01,WUHU216DAVISVP2,2013-02-11 10:57:00,
2013-02-11 06:02:00,49.4,45.7,30.08,WSW,241,0.0,1.0,87,0.00,,,0.01,WUHU216DAVISVP2,2013-02-11 11:02:00,
2013-02-11 06:07:00,49.8,46.1,30.08,WSW,241,0.0,0.0,87,0.00,,,0.01,WUHU216DAVISVP2,2013-02-11 11:07:00,
2013-02-11 06:12:00,49.8,46.1,30.08,WSW,241,0.0,0.0,87,0.00,,,0.01,WUHU216DAVISVP2,2013-02-11 11:12:00,
2013-02-11 06:17:00,50.1,46.7,30.08,WSW,241,0.0,0.0,88,0.00,,,0.01,WUHU216DAVISVP2,2013-02-11 11:17:00,
2013-02-11 06:22:00,50.2,46.8,30.08,WSW,241,0.0,0.0,88,0.00,,,0.01,WUHU216DAVISVP2,2013-02-11 11:22:00,
2013-02-11 06:27:00,50.2,46.8,30.08,WSW,241,0.0,0.0,88,0.00,,,0.01,WUHU216DAVISVP2,2013-02-11 11:27:00,
2013-02-11 06:32:00,50.4,47.0,30.07,WSW,241,0.0,0.0,88,0.00,,,0.01,WUHU216DAVISVP2,2013-02-11 11:32:00,
2013-02-11 06:37:00,50.7,47.2,30.07,WSW,241,0.0,0.0,88,0.00,,,0.01,WUHU216DAVISVP2,2013-02-11 11:37:00,
2013-02-11 06:42:00,50.8,47.3,30.07,WSW,241,0.0,0.0,88,0.00,,,0.01,WUHU216DAVISVP2,2013-02-11 11:42:00,
2013-02-11 06:47:00,51.1,47.6,30.07,WSW,241,0.0,1.0,88,0.00,,,0.01,WUHU216DAVISVP2,2013-02-11 11:47:00,
2013-02-11 06:52:00,51.1,47.6,30.07,WSW,240,0.0,6.0,88,0.01,,,0.02,WUHU216DAVISVP2,2013-02-11 11:52:00,
2013-02-11 06:57:00,51.6,48.1,30.07,WSW,239,0.0,6.0,88,0.01,,,0.02,WUHU216DAVISVP2,2013-02-11 11:57:00,
2013-02-11 07:02:00,51.6,48.1,30.06,WSW,239,0.0,0.0,88,0.01,,,0.02,WUHU216DAVISVP2,2013-02-11 12:02:00,
2013-02-11 07:07:00,52.2,48.7,30.06,West,264,0.0,0.0,88,0.01,,,0.02,WUHU216DAVISVP2,2013-02-11 12:07:00,
2013-02-11 07:12:00,52.3,49.1,30.06,West,264,0.0,0.0,89,0.01,,,0.02,WUHU216DAVISVP2,2013-02-11 12:12:00,
2013-02-11 07:17:00,52.6,49.4,30.06,ESE,103,0.0,0.0,89,0.01,,,0.02,WUHU216DAVISVP2,2013-02-11 12:17:00,
2013-02-11 07:22:00,52.6,49.1,30.06,ESE,106,0.0,1.0,88,0.01,,,0.02,WUHU216DAVISVP2,2013-02-11 12:22:00,
2013-02-11 07:27:00,53.2,49.7,30.06,SSW,199,0.0,1.0,88,0.01,,,0.02,WUHU216DAVISVP2,2013-02-11 12:27:00,
2013-02-11 07:32:00,53.3,49.8,30.06,SSW,200,0.0,1.0,88,0.01,,,0.02,WUHU216DAVISVP2,2013-02-11 12:32:00,
2013-02-11 07:37:00,53.6,50.1,30.06,SSW,200,0.0,1.0,88,0.01,,,0.02,WUHU216DAVISVP2,2013-02-11 12:37:00,
2013-02-11 07:42:00,54.1,50.6,30.06,SW,215,0.0,1.0,88,0.01,,,0.02,WUHU216DAVISVP2,2013-02-11 12:42:00,
2013-02-11 07:47:00,54.5,51.0,30.06,South,189,0.0,2.0,88,0.02,,,0.03,WUHU216DAVISVP2,2013-02-11 12:47:00,
2013-02-11 07:52:00,54.5,51.0,30.06,South,176,2.0,4.0,88,0.01,,,0.03,WUHU216DAVISVP2,2013-02-11 12:52:00,
2013-02-11 07:57:00,55.0,51.5,30.06,South,179,0.0,4.0,88,0.01,,,0.03,WUHU216DAVISVP2,2013-02-11 12:57:00,
2013-02-11 08:02:00,55.0,51.5,30.05,South,179,0.0,1.0,88,0.01,,,0.03,WUHU216DAVISVP2,2013-02-11 13:02:00,
2013-02-11 08:07:00,55.4,51.9,30.05,South,178,0.0,1.0,88,0.01,,,0.03,WUHU216DAVISVP2,2013-02-11 13:07:00,
2013-02-11 08:12:00,55.6,52.1,30.05,East,88,4.0,4.0,88,0.01,,,0.03,WUHU216DAVISVP2,2013-02-11 13:12:00,
2013-02-11 08:17:00,55.7,52.8,30.04,North,0,0.0,4.0,90,0.01,,,0.03,WUHU216DAVISVP2,2013-02-11 13:17:00,
2013-02-11 08:22:00,55.9,53.0,30.04,ESE,120,0.0,4.0,90,0.01,,,0.03,WUHU216DAVISVP2,2013-02-11 13:22:00,
2013-02-11 08:27:00,56.3,53.4,30.04,ESE,116,0.0,2.0,90,0.01,,,0.03,WUHU216DAVISVP2,2013-02-11 13:27:00,
2013-02-11 08:32:00,56.2,53.3,30.03,SE,124,0.0,4.0,90,0.01,,,0.03,WUHU216DAVISVP2,2013-02-11 13:32:00,
2013-02-11 08:37:00,56.3,53.4,30.03,SSW,195,0.0,4.0,90,0.01,,,0.03,WUHU216DAVISVP2,2013-02-11 13:37:00,
2013-02-11 08:42:00,56.3,53.4,30.03,SSW,210,0.0,4.0,90,0.01,,,0.03,WUHU216DAVISVP2,2013-02-11 13:42:00,
2013-02-11 08:47:00,56.6,53.7,30.02,SSW,212,0.0,4.0,90,0.00,,,0.03,WUHU216DAVISVP2,2013-02-11 13:47:00,
2013-02-11 08:52:00,56.9,54.0,30.02,SW,220,2.0,4.0,90,0.00,,,0.03,WUHU216DAVISVP2,2013-02-11 13:52:00,
2013-02-11 08:57:00,57.0,54.1,30.02,SSE,155,0.0,2.0,90,0.00,,,0.03,WUHU216DAVISVP2,2013-02-11 13:57:00,
2013-02-11 09:02:00,57.0,54.1,30.02,NW,315,1.0,4.0,90,0.00,,,0.03,WUHU216DAVISVP2,2013-02-11 14:02:00,
2013-02-11 09:07:00,57.3,54.4,30.02,NW,315,0.0,4.0,90,0.00,,,0.03,WUHU216DAVISVP2,2013-02-11 14:07:00,
2013-02-11 09:12:00,57.6,54.7,30.02,SSW,210,1.0,4.0,90,0.00,,,0.03,WUHU216DAVISVP2,2013-02-11 14:12:00,
2013-02-11 09:17:00,58.0,55.1,30.02,SE,127,2.0,6.0,90,0.00,,,0.03,WUHU216DAVISVP2,2013-02-11 14:17:00,
2013-02-11 09:22:00,58.3,55.3,30.02,SSE,150,0.0,6.0,90,0.00,,,0.03,WUHU216DAVISVP2,2013-02-11 14:22:00,
2013-02-11 09:27:00,58.4,55.4,30.02,ESE,120,0.0,4.0,90,0.00,,,0.03,WUHU216DAVISVP2,2013-02-11 14:27:00,
2013-02-11 09:32:00,58.6,55.6,30.02,East,97,0.0,4.0,90,0.00,,,0.03,WUHU216DAVISVP2,2013-02-11 14:32:00,
2013-02-11 09:37:00,58.6,55.6,30.02,East,97,0.0,4.0,90,0.00,,,0.03,WUHU216DAVISVP2,2013-02-11 14:37:00,
2013-02-11 09:42:00,58.9,55.9,30.02,ESE,116,0.0,1.0,90,0.00,,,0.03,WUHU216DAVISVP2,2013-02-11 14:42:00,
2013-02-11 09:47:00,59.2,56.2,30.02,SSE,151,0.0,1.0,90,0.00,,,0.03,WUHU216DAVISVP2,2013-02-11 14:47:00,
2013-02-11 09:52:00,59.0,56.0,30.02,SSE,151,0.0,1.0,90,0.00,,,0.03,WUHU216DAVISVP2,2013-02-11 14:52:00,
2013-02-11 09:57:00,59.2,56.2,30.02,East,89,0.0,4.0,90,0.00,,,0.03,WUHU216DAVISVP2,2013-02-11 14:57:00,
2013-02-11 10:02:00,59.8,56.8,30.01,SSW,193,0.0,4.0,90,0.00,,,0.03,WUHU216DAVISVP2,2013-02-11 15:02:00,
2013-02-11 10:07:00,59.6,56.6,30.01,SSW,193,0.0,2.0,90,0.00,,,0.03,WUHU216DAVISVP2,2013-02-11 15:07:00,
2013-02-11 10:12:00,59.6,56.6,30.01,ENE,58,1.0,2.0,90,0.00,,,0.03,WUHU216DAVISVP2,2013-02-11 15:12:00,
2013-02-11 10:18:00,60.1,57.1,30.02,ENE,76,1.0,2.0,90,0.00,,,0.03,WUHU216DAVISVP2,2013-02-11 15:18:00,
2013-02-11 10:23:00,60.2,57.2,30.02,West,280,1.0,2.0,90,0.00,,,0.03,WUHU216DAVISVP2,2013-02-11 15:23:00,
2013-02-11 10:28:00,60.9,57.9,30.02,ESE,110,0.0,2.0,90,0.00,,,0.03,WUHU216DAVISVP2,2013-02-11 15:28:00,
2013-02-11 10:33:00,60.7,57.7,30.01,SW,217,0.0,2.0,90,0.00,,,0.03,WUHU216DAVISVP2,2013-02-11 15:33:00,
2013-02-11 10:38:00,60.9,57.9,30.01,ESE,109,0.0,2.0,90,0.00,,,0.03,WUHU216DAVISVP2,2013-02-11 15:38:00,
2013-02-11 10:43:00,61.2,58.2,30.01,ESE,113,7.0,7.0,90,0.00,,,0.03,WUHU216DAVISVP2,2013-02-11 15:43:00,
2013-02-11 10:48:00,61.2,58.2,30.02,East,80,0.0,7.0,90,0.00,,,0.03,WUHU216DAVISVP2,2013-02-11 15:48:00,
2013-02-11 10:53:00,61.8,58.8,30.02,SW,236,0.0,7.0,90,0.00,,,0.03,WUHU216DAVISVP2,2013-02-11 15:53:00,
2013-02-11 10:58:00,62.0,59.3,30.02,East,97,0.0,4.0,91,0.00,,,0.03,WUHU216DAVISVP2,2013-02-11 15:58:00,
2013-02-11 11:03:00,62.1,59.4,30.00,SSW,203,0.0,4.0,91,0.00,,,0.03,WUHU216DAVISVP2,2013-02-11 16:03:00,
2013-02-11 11:08:00,62.1,59.4,30.00,SSE,157,0.0,1.0,91,0.00,,,0.03,WUHU216DAVISVP2,2013-02-11 16:08:00,
2013-02-11 11:13:00,62.3,59.6,30.00,ESE,102,0.0,2.0,91,0.00,,,0.03,WUHU216DAVISVP2,2013-02-11 16:13:00,
2013-02-11 11:18:00,62.3,59.6,30.00,North,349,0.0,2.0,91,0.00,,,0.03,WUHU216DAVISVP2,2013-02-11 16:18:00,
2013-02-11 11:23:00,62.9,60.2,30.00,ESE,114,1.0,2.0,91,0.00,,,0.03,WUHU216DAVISVP2,2013-02-11 16:23:00,
2013-02-11 11:28:00,62.9,60.2,30.00,SSE,150,0.0,6.0,91,0.00,,,0.03,WUHU216DAVISVP2,2013-02-11 16:28:00,
2013-02-11 11:33:00,62.6,59.9,29.99,SSE,158,0.0,6.0,91,0.00,,,0.03,WUHU216DAVISVP2,2013-02-11 16:33:00,
2013-02-11 11:38:00,62.4,59.7,29.99,SW,226,0.0,6.0,91,0.00,,,0.03,WUHU216DAVISVP2,2013-02-11 16:38:00,
2013-02-11 11:43:00,62.6,59.9,29.99,ESE,107,1.0,6.0,91,0.00,,,0.03,WUHU216DAVISVP2,2013-02-11 16:43:00,
2013-02-11 11:48:00,63.1,60.4,29.98,SE,124,0.0,6.0,91,0.00,,,0.03,WUHU216DAVISVP2,2013-02-11 16:48:00,
2013-02-11 11:53:00,62.6,59.9,29.98,SE,131,0.0,6.0,91,0.00,,,0.03,WUHU216DAVISVP2,2013-02-11 16:53:00,
2013-02-11 11:58:00,62.6,59.9,29.98,SSE,157,0.0,6.0,91,0.00,,,0.03,WUHU216DAVISVP2,2013-02-11 16:58:00,
2013-02-11 12:03:00,62.6,59.9,29.97,West,280,1.0,2.0,91,0.00,,,0.03,WUHU216DAVISVP2,2013-02-11 17:03:00,
2013-02-11 12:08:00,62.9,60.2,29.97,North,6,0.0,4.0,91,0.00,,,0.03,WUHU216DAVISVP2,2013-02-11 17:08:00,
2013-02-11 12:13:00,63.4,60.7,29.97,North,7,1.0,4.0,91,0.00,,,0.03,WUHU216DAVISVP2,2013-02-11 17:13:00,
2013-02-11 12:18:00,63.1,60.4,29.96,ENE,62,0.0,2.0,91,0.00,,,0.03,WUHU216DAVISVP2,2013-02-11 17:18:00,
2013-02-11 12:23:00,63.1,60.4,29.96,South,191,0.0,4.0,91,0.00,,,0.03,WUHU216DAVISVP2,2013-02-11 17:23:00,
2013-02-11 12:28:00,63.5,60.8,29.96,SE,128,2.0,4.0,91,0.00,,,0.03,WUHU216DAVISVP2,2013-02-11 17:28:00,
2013-02-11 12:33:00,63.1,60.4,29.96,West,264,0.0,4.0,91,0.00,,,0.03,WUHU216DAVISVP2,2013-02-11 17:33:00,
2013-02-11 12:38:00,63.2,60.5,29.96,South,182,0.0,4.0,91,0.00,,,0.03,WUHU216DAVISVP2,2013-02-11 17:38:00,
2013-02-11 12:43:00,63.7,61.0,29.96,NNW,328,0.0,8.0,91,0.00,,,0.03,WUHU216DAVISVP2,2013-02-11 17:43:00,
2013-02-11 12:48:00,63.7,61.0,29.95,WSW,241,4.0,8.0,91,0.00,,,0.03,WUHU216DAVISVP2,2013-02-11 17:48:00,
2013-02-11 12:53:00,64.0,61.3,29.95,ESE,120,0.0,4.0,91,0.00,,,0.03,WUHU216DAVISVP2,2013-02-11 17:53:00,
2013-02-11 12:58:00,64.0,61.3,29.95,ENE,78,0.0,4.0,91,0.00,,,0.03,WUHU216DAVISVP2,2013-02-11 17:58:00,
2013-02-11 13:03:00,63.7,61.0,29.95,SE,131,2.0,6.0,91,0.00,,,0.03,WUHU216DAVISVP2,2013-02-11 18:03:00,
2013-02-11 13:08:00,63.5,60.8,29.95,ENE,69,2.0,6.0,91,0.00,,,0.03,WUHU216DAVISVP2,2013-02-11 18:08:00,
2013-02-11 13:13:00,63.9,61.2,29.95,ENE,75,2.0,6.0,91,0.00,,,0.03,WUHU216DAVISVP2,2013-02-11 18:13:00,
2013-02-11 13:18:00,64.5,61.8,29.94,ESE,106,1.0,6.0,91,0.00,,,0.03,WUHU216DAVISVP2,2013-02-11 18:18:00,
2013-02-11 13:23:00,64.0,61.3,29.94,East,99,1.0,2.0,91,0.00,,,0.03,WUHU216DAVISVP2,2013-02-11 18:23:00,
2013-02-11 13:28:00,64.3,61.6,29.94,NW,308,0.0,2.0,91,0.00,,,0.03,WUHU216DAVISVP2,2013-02-11 18:28:00,
2013-02-11 13:33:00,63.9,61.2,29.94,SSW,192,0.0,9.0,91,0.00,,,0.03,WUHU216DAVISVP2,2013-02-11 18:33:00,
2013-02-11 13:38:00,64.2,61.5,29.94,East,97,1.0,9.0,91,0.00,,,0.03,WUHU216DAVISVP2,2013-02-11 18:38:00,
2013-02-11 13:43:00,64.0,61.3,29.94,WSW,240,0.0,6.0,91,0.00,,,0.03,WUHU216DAVISVP2,2013-02-11 18:43:00,
2013-02-11 13:48:00,64.3,61.6,29.93,North,349,0.0,6.0,91,0.00,,,0.03,WUHU216DAVISVP2,2013-02-11 18:48:00,
2013-02-11 13:53:00,64.7,62.0,29.93,ESE,106,1.0,4.0,91,0.00,,,0.03,WUHU216DAVISVP2,2013-02-11 18:53:00,
2013-02-11 13:58:00,64.0,61.3,29.93,ESE,117,0.0,4.0,91,0.00,,,0.03,WUHU216DAVISVP2,2013-02-11 18:58:00,
2013-02-11 14:03:00,64.2,61.5,29.91,East,93,1.0,2.0,91,0.00,,,0.03,WUHU216DAVISVP2,2013-02-11 19:03:00,
2013-02-11 14:08:00,64.2,61.5,29.91,SE,124,6.0,7.0,91,0.00,,,0.03,WUHU216DAVISVP2,2013-02-11 19:08:00,
2013-02-11 14:13:00,64.0,61.3,29.91,ESE,109,0.0,7.0,91,0.00,,,0.03,WUHU216DAVISVP2,2013-02-11 19:13:00,
2013-02-11 14:18:00,64.5,61.8,29.90,South,191,0.0,6.0,91,0.00,,,0.03,WUHU216DAVISVP2,2013-02-11 19:18:00,
2013-02-11 14:24:00,64.5,61.8,29.90,ENE,75,1.0,2.0,91,0.00,,,0.03,WUHU216DAVISVP2,2013-02-11 19:24:00,
2013-02-11 14:28:00,64.0,61.3,29.90,NE,48,0.0,7.0,91,0.00,,,0.03,WUHU216DAVISVP2,2013-02-11 19:28:00,
2013-02-11 14:33:00,64.0,61.3,29.90,SSW,213,4.0,7.0,91,0.00,,,0.03,WUHU216DAVISVP2,2013-02-11 19:33:00,
2013-02-11 14:38:00,63.7,61.0,29.90,WNW,301,0.0,4.0,91,0.00,,,0.03,WUHU216DAVISVP2,2013-02-11 19:38:00,
2013-02-11 14:43:00,63.7,61.0,29.90,SE,138,1.0,8.0,91,0.00,,,0.03,WUHU216DAVISVP2,2013-02-11 19:43:00,
2013-02-11 14:48:00,63.9,61.2,29.90,ESE,104,1.0,8.0,91,0.00,,,0.03,WUHU216DAVISVP2,2013-02-11 19:48:00,
2013-02-11 14:53:00,63.7,61.0,29.90,ESE,104,0.0,7.0,91,0.00,,,0.03,WUHU216DAVISVP2,2013-02-11 19:53:00,
2013-02-11 14:58:00,63.7,61.0,29.90,SE,140,0.0,6.0,91,0.00,,,0.03,WUHU216DAVISVP2,2013-02-11 19:58:00,
2013-02-11 15:03:00,63.7,61.0,29.91,ESE,121,0.0,6.0,91,0.00,,,0.03,WUHU216DAVISVP2,2013-02-11 20:03:00,
2013-02-11 15:08:00,63.7,61.0,29.91,East,93,0.0,7.0,91,0.00,,,0.03,WUHU216DAVISVP2,2013-02-11 20:08:00,
2013-02-11 15:14:00,63.5,60.8,29.91,WNW,282,0.0,7.0,91,0.00,,,0.03,WUHU216DAVISVP2,2013-02-11 20:14:00,
2013-02-11 15:19:00,63.5,60.5,29.91,East,83,2.0,8.0,90,0.00,,,0.03,WUHU216DAVISVP2,2013-02-11 20:19:00,
2013-02-11 15:24:00,63.5,60.5,29.91,East,83,2.0,8.0,90,0.00,,,0.03,WUHU216DAVISVP2,2013-02-11 20:24:00,
2013-02-11 15:28:00,63.5,60.5,29.91,West,265,4.0,7.0,90,0.00,,,0.03,WUHU216DAVISVP2,2013-02-11 20:28:00,
2013-02-11 15:33:00,63.2,60.2,29.91,South,186,0.0,7.0,90,0.00,,,0.03,WUHU216DAVISVP2,2013-02-11 20:33:00,
2013-02-11 15:38:00,63.2,60.2,29.91,ESE,116,1.0,6.0,90,0.00,,,0.03,WUHU216DAVISVP2,2013-02-11 20:38:00,
2013-02-11 15:43:00,63.2,60.2,29.91,NE,47,0.0,9.0,90,0.00,,,0.03,WUHU216DAVISVP2,2013-02-11 20:43:00,
2013-02-11 15:48:00,63.1,60.1,29.90,East,100,1.0,15.0,90,0.00,,,0.03,WUHU216DAVISVP2,2013-02-11 20:48:00,
2013-02-11 15:54:00,63.1,60.1,29.90,ESE,104,1.0,15.0,90,0.00,,,0.03,WUHU216DAVISVP2,2013-02-11 20:54:00,
2013-02-11 15:58:00,63.1,60.1,29.90,East,96,0.0,8.0,90,0.00,,,0.03,WUHU216DAVISVP2,2013-02-11 20:58:00,
2013-02-11 16:03:00,62.9,59.9,29.88,SE,141,0.0,6.0,90,0.00,,,0.03,WUHU216DAVISVP2,2013-02-11 21:03:00,
2013-02-11 16:08:00,62.7,59.7,29.88,NNW,336,0.0,7.0,90,0.00,,,0.03,WUHU216DAVISVP2,2013-02-11 21:08:00,
2013-02-11 16:13:00,62.9,59.9,29.88,ESE,102,0.0,7.0,90,0.00,,,0.03,WUHU216DAVISVP2,2013-02-11 21:13:00,
2013-02-11 16:18:00,62.9,59.9,29.88,SSE,164,0.0,4.0,90,0.00,,,0.03,WUHU216DAVISVP2,2013-02-11 21:18:00,
2013-02-11 16:23:00,62.7,59.7,29.88,SE,141,0.0,4.0,90,0.00,,,0.03,WUHU216DAVISVP2,2013-02-11 21:23:00,
2013-02-11 16:28:00,62.9,59.9,29.88,East,79,0.0,4.0,90,0.00,,,0.03,WUHU216DAVISVP2,2013-02-11 21:28:00,
2013-02-11 16:33:00,62.7,59.7,29.87,WNW,302,0.0,7.0,90,0.00,,,0.03,WUHU216DAVISVP2,2013-02-11 21:33:00,
2013-02-11 16:38:00,62.7,59.7,29.87,NNW,335,0.0,7.0,90,0.00,,,0.03,WUHU216DAVISVP2,2013-02-11 21:38:00,
2013-02-11 16:43:00,62.7,59.4,29.87,East,96,6.0,8.0,89,0.00,,,0.03,WUHU216DAVISVP2,2013-02-11 21:43:00,
2013-02-11 16:48:00,62.9,59.6,29.88,SSE,148,1.0,8.0,89,0.00,,,0.03,WUHU216DAVISVP2,2013-02-11 21:48:00,
2013-02-11 16:54:00,62.9,59.6,29.88,South,181,0.0,7.0,89,0.00,,,0.03,WUHU216DAVISVP2,2013-02-11 21:54:00,
2013-02-11 16:58:00,62.7,59.4,29.88,ENE,64,0.0,8.0,89,0.00,,,0.03,WUHU216DAVISVP2,2013-02-11 21:58:00,
2013-02-11 17:03:00,62.7,59.4,29.89,SE,143,0.0,8.0,89,0.00,,,0.03,WUHU216DAVISVP2,2013-02-11 22:03:00,
2013-02-11 17:08:00,62.7,59.4,29.89,SE,140,0.0,8.0,89,0.00,,,0.03,WUHU216DAVISVP2,2013-02-11 22:08:00,
2013-02-11 17:13:00,62.7,59.4,29.89,ESE,102,0.0,6.0,89,0.00,,,0.03,WUHU216DAVISVP2,2013-02-11 22:13:00,
2013-02-11 17:18:00,62.6,59.3,29.89,West,278,0.0,2.0,89,0.00,,,0.03,WUHU216DAVISVP2,2013-02-11 22:18:00,
2013-02-11 17:23:00,62.6,59.3,29.89,NNE,31,0.0,2.0,89,0.00,,,0.03,WUHU216DAVISVP2,2013-02-11 22:23:00,
2013-02-11 17:29:00,62.4,59.1,29.89,West,263,0.0,4.0,89,0.00,,,0.03,WUHU216DAVISVP2,2013-02-11 22:29:00,
2013-02-11 17:34:00,62.4,59.1,29.89,SE,124,0.0,7.0,89,0.00,,,0.03,WUHU216DAVISVP2,2013-02-11 22:34:00,
2013-02-11 17:40:00,62.4,59.1,29.89,East,95,1.0,7.0,89,0.00,,,0.03,WUHU216DAVISVP2,2013-02-11 22:40:00,
2013-02-11 17:45:00,62.3,59.0,29.89,WSW,246,0.0,4.0,89,0.00,,,0.03,WUHU216DAVISVP2,2013-02-11 22:45:00,
2013-02-11 17:50:00,62.3,59.0,29.89,NE,56,0.0,4.0,89,0.00,,,0.03,WUHU216DAVISVP2,2013-02-11 22:50:00,
2013-02-11 17:55:00,62.0,58.7,29.89,NE,56,0.0,2.0,89,0.00,,,0.03,WUHU216DAVISVP2,2013-02-11 22:55:00,
2013-02-11 18:00:00,62.0,58.7,29.89,North,0,0.0,1.0,89,0.00,,,0.03,WUHU216DAVISVP2,2013-02-11 23:00:00,
2013-02-11 18:05:00,61.8,58.5,29.89,SSE,157,0.0,2.0,89,0.00,,,0.03,WUHU216DAVISVP2,2013-02-11 23:05:00,
2013-02-11 18:10:00,61.6,58.3,29.89,West,261,0.0,4.0,89,0.00,,,0.03,WUHU216DAVISVP2,2013-02-11 23:10:00,
2013-02-11 18:15:00,62.1,58.8,29.90,NE,54,0.0,4.0,89,0.00,,,0.03,WUHU216DAVISVP2,2013-02-11 23:15:00,
2013-02-11 18:20:00,62.0,58.7,29.90,NE,56,0.0,4.0,89,0.00,,,0.03,WUHU216DAVISVP2,2013-02-11 23:20:00,
2013-02-11 18:25:00,62.0,58.7,29.90,NE,54,0.0,1.0,89,0.00,,,0.03,WUHU216DAVISVP2,2013-02-11 23:25:00,
2013-02-11 18:30:00,61.8,58.5,29.89,NNE,23,0.0,4.0,89,0.00,,,0.03,WUHU216DAVISVP2,2013-02-11 23:30:00,
2013-02-11 18:35:00,61.6,58.3,29.89,NNE,23,0.0,4.0,89,0.00,,,0.03,WUHU216DAVISVP2,2013-02-11 23:35:00,
2013-02-11 18:40:00,61.8,58.5,29.89,NE,37,1.0,2.0,89,0.00,,,0.03,WUHU216DAVISVP2,2013-02-11 23:40:00,
2013-02-11 18:45:00,62.0,58.7,29.89,North,11,0.0,2.0,89,0.00,,,0.03,WUHU216DAVISVP2,2013-02-11 23:45:00,
2013-02-11 18:50:00,62.1,59.1,29.89,North,11,0.0,1.0,90,0.00,,,0.03,WUHU216DAVISVP2,2013-02-11 23:50:00,
2013-02-11 18:55:00,62.1,58.8,29.89,WSW,250,0.0,1.0,89,0.00,,,0.03,WUHU216DAVISVP2,2013-02-11 23:55:00,
2013-02-11 19:00:00,61.8,58.5,29.90,WSW,248,0.0,2.0,89,0.00,,,0.03,WUHU216DAVISVP2,2013-02-12 00:00:00,
2013-02-11 19:05:00,62.0,58.7,29.90,South,186,0.0,4.0,89,0.00,,,0.03,WUHU216DAVISVP2,2013-02-12 00:05:00,
2013-02-11 19:10:00,61.8,58.5,29.90,South,172,0.0,4.0,89,0.00,,,0.03,WUHU216DAVISVP2,2013-02-12 00:10:00,
2013-02-11 19:15:00,61.8,58.5,29.89,South,172,0.0,2.0,89,0.00,,,0.03,WUHU216DAVISVP2,2013-02-12 00:15:00,
2013-02-11 19:20:00,61.6,58.3,29.89,South,182,0.0,1.0,89,0.00,,,0.03,WUHU216DAVISVP2,2013-02-12 00:20:00,
2013-02-11 19:25:00,61.6,58.3,29.89,South,169,0.0,1.0,89,0.00,,,0.03,WUHU216DAVISVP2,2013-02-12 00:25:00,
2013-02-11 19:30:00,61.6,58.3,29.89,South,169,0.0,0.0,89,0.00,,,0.03,WUHU216DAVISVP2,2013-02-12 00:30:00,
2013-02-11 19:35:00,61.3,58.0,29.89,SSW,193,0.0,2.0,89,0.00,,,0.03,WUHU216DAVISVP2,2013-02-12 00:35:00,
2013-02-11 19:40:00,61.2,58.2,29.89,NNW,328,0.0,7.0,90,0.00,,,0.03,WUHU216DAVISVP2,2013-02-12 00:40:00,
2013-02-11 19:45:00,61.2,58.2,29.91,South,189,0.0,7.0,90,0.00,,,0.03,WUHU216DAVISVP2,2013-02-12 00:45:00,
2013-02-11 19:50:00,61.0,57.7,29.91,South,189,0.0,2.0,89,0.00,,,0.03,WUHU216DAVISVP2,2013-02-12 00:50:00,
2013-02-11 19:55:00,61.0,58.0,29.91,ESE,106,0.0,1.0,90,0.00,,,0.03,WUHU216DAVISVP2,2013-02-12 00:55:00,
2013-02-11 20:00:00,61.0,58.0,29.90,ESE,106,0.0,1.0,90,0.00,,,0.03,WUHU216DAVISVP2,2013-02-12 01:00:00,
2013-02-11 20:05:00,61.0,58.0,29.90,ESE,121,0.0,2.0,90,0.00,,,0.03,WUHU216DAVISVP2,2013-02-12 01:05:00,
2013-02-11 20:10:00,60.9,57.9,29.90,ESE,116,0.0,2.0,90,0.00,,,0.03,WUHU216DAVISVP2,2013-02-12 01:10:00,
2013-02-11 20:15:00,60.7,57.7,29.89,South,171,2.0,2.0,90,0.00,,,0.03,WUHU216DAVISVP2,2013-02-12 01:15:00,
2013-02-11 20:20:00,60.5,57.6,29.89,WSW,237,0.0,2.0,90,0.00,,,0.03,WUHU216DAVISVP2,2013-02-12 01:20:00,
2013-02-11 20:25:00,60.5,57.5,29.89,NNW,329,0.0,4.0,90,0.00,,,0.03,WUHU216DAVISVP2,2013-02-12 01:25:00,
2013-02-11 20:30:00,60.9,57.9,29.90,East,95,0.0,6.0,90,0.00,,,0.03,WUHU216DAVISVP2,2013-02-12 01:30:00,
2013-02-11 20:35:00,60.9,57.9,29.90,West,274,0.0,6.0,90,0.00,,,0.03,WUHU216DAVISVP2,2013-02-12 01:35:00,
2013-02-11 20:40:00,61.0,58.0,29.90,SW,234,0.0,2.0,90,0.00,,,0.03,WUHU216DAVISVP2,2013-02-12 01:40:00,
2013-02-11 20:45:00,61.0,58.0,29.89,SW,234,0.0,2.0,90,0.00,,,0.03,WUHU216DAVISVP2,2013-02-12 01:45:00,
2013-02-11 20:50:00,60.9,57.9,29.89,SW,232,0.0,0.0,90,0.00,,,0.03,WUHU216DAVISVP2,2013-02-12 01:50:00,
2013-02-11 20:55:00,60.5,57.5,29.89,SW,226,0.0,1.0,90,0.00,,,0.03,WUHU216DAVISVP2,2013-02-12 01:55:00,
2013-02-11 21:00:00,60.4,57.4,29.90,SW,226,0.0,2.0,90,0.00,,,0.03,WUHU216DAVISVP2,2013-02-12 02:00:00,
2013-02-11 21:05:00,60.1,57.1,29.90,SW,226,0.0,2.0,90,0.00,,,0.03,WUHU216DAVISVP2,2013-02-12 02:05:00,
2013-02-11 21:10:00,60.1,57.1,29.90,SW,226,0.0,0.0,90,0.00,,,0.03,WUHU216DAVISVP2,2013-02-12 02:10:00,
2013-02-11 21:15:00,60.1,57.1,29.89,SW,226,0.0,0.0,90,0.00,,,0.03,WUHU216DAVISVP2,2013-02-12 02:15:00,
2013-02-11 21:20:00,60.1,57.1,29.89,SW,226,0.0,0.0,90,0.00,,,0.03,WUHU216DAVISVP2,2013-02-12 02:20:00,
2013-02-11 21:25:00,60.1,57.1,29.89,SW,223,0.0,0.0,90,0.00,,,0.03,WUHU216DAVISVP2,2013-02-12 02:25:00,
2013-02-11 21:30:00,58.6,55.7,29.89,SW,223,0.0,0.0,90,0.00,,,0.03,WUHU216DAVISVP2,2013-02-12 02:30:00,
2013-02-11 21:35:00,58.4,55.5,29.89,ESE,114,0.0,0.0,90,0.00,,,0.03,WUHU216DAVISVP2,2013-02-12 02:35:00,
2013-02-11 21:40:00,58.3,55.4,29.89,ESE,114,0.0,0.0,90,0.00,,,0.03,WUHU216DAVISVP2,2013-02-12 02:40:00,
2013-02-11 21:45:00,58.0,55.1,29.89,ESE,114,0.0,0.0,90,0.00,,,0.03,WUHU216DAVISVP2,2013-02-12 02:45:00,
2013-02-11 21:50:00,57.8,54.9,29.89,ESE,114,0.0,1.0,90,0.00,,,0.03,WUHU216DAVISVP2,2013-02-12 02:50:00,
2013-02-11 21:55:00,58.0,55.1,29.89,ESE,114,0.0,1.0,90,0.00,,,0.03,WUHU216DAVISVP2,2013-02-12 02:55:00,
2013-02-11 22:00:00,58.3,55.3,29.89,ESE,114,0.0,1.0,90,0.00,,,0.03,WUHU216DAVISVP2,2013-02-12 03:00:00,
2013-02-11 22:05:00,58.0,55.1,29.89,ESE,117,0.0,1.0,90,0.00,,,0.03,WUHU216DAVISVP2,2013-02-12 03:05:00,
2013-02-11 22:10:00,58.3,55.7,29.89,ESE,117,0.0,1.0,91,0.00,,,0.03,WUHU216DAVISVP2,2013-02-12 03:10:00,
2013-02-11 22:15:00,58.0,55.1,29.89,ESE,117,0.0,0.0,90,0.00,,,0.03,WUHU216DAVISVP2,2013-02-12 03:15:00,
2013-02-11 22:20:00,58.0,55.1,29.89,ESE,117,0.0,0.0,90,0.00,,,0.03,WUHU216DAVISVP2,2013-02-12 03:20:00,
2013-02-11 22:25:00,57.6,54.7,29.89,ESE,117,0.0,0.0,90,0.00,,,0.03,WUHU216DAVISVP2,2013-02-12 03:25:00,
2013-02-11 22:30:00,58.3,55.6,29.89,ESE,117,0.0,1.0,91,0.00,,,0.03,WUHU216DAVISVP2,2013-02-12 03:30:00,
2013-02-11 22:35:00,58.1,55.5,29.89,ESE,117,0.0,1.0,91,0.00,,,0.03,WUHU216DAVISVP2,2013-02-12 03:35:00,
2013-02-11 22:40:00,57.8,55.2,29.89,ESE,117,0.0,0.0,91,0.00,,,0.03,WUHU216DAVISVP2,2013-02-12 03:40:00,
2013-02-11 22:45:00,57.6,55.0,29.89,ESE,117,0.0,0.0,91,0.00,,,0.03,WUHU216DAVISVP2,2013-02-12 03:45:00,
2013-02-11 22:50:00,57.3,54.7,29.89,ESE,117,0.0,0.0,91,0.00,,,0.03,WUHU216DAVISVP2,2013-02-12 03:50:00,
2013-02-11 22:55:00,57.2,54.6,29.89,ESE,117,0.0,1.0,91,0.00,,,0.03,WUHU216DAVISVP2,2013-02-12 03:55:00,
2013-02-11 23:00:00,57.2,54.6,29.89,ESE,117,0.0,1.0,91,0.00,,,0.03,WUHU216DAVISVP2,2013-02-12 04:00:00,
2013-02-11 23:05:00,57.2,54.6,29.89,ESE,123,0.0,4.0,91,0.00,,,0.03,WUHU216DAVISVP2,2013-02-12 04:05:00,
2013-02-11 23:10:00,57.3,54.7,29.89,ESE,123,0.0,4.0,91,0.00,,,0.03,WUHU216DAVISVP2,2013-02-12 04:10:00,
2013-02-11 23:15:00,57.3,54.7,29.89,ESE,123,0.0,2.0,91,0.00,,,0.03,WUHU216DAVISVP2,2013-02-12 04:15:00,
2013-02-11 23:20:00,57.2,54.6,29.89,ESE,123,0.0,2.0,91,0.00,,,0.03,WUHU216DAVISVP2,2013-02-12 04:20:00,
2013-02-11 23:25:00,57.3,54.7,29.89,North,0,0.0,2.0,91,0.00,,,0.03,WUHU216DAVISVP2,2013-02-12 04:25:00,
2013-02-11 23:30:00,57.3,54.7,29.89,North,0,0.0,2.0,91,0.00,,,0.03,WUHU216DAVISVP2,2013-02-12 04:30:00,
2013-02-11 23:35:00,57.2,54.6,29.89,SE,124,0.0,4.0,91,0.00,,,0.03,WUHU216DAVISVP2,2013-02-12 04:35:00,
2013-02-11 23:40:00,57.5,54.9,29.89,ESE,116,0.0,4.0,91,0.00,,,0.03,WUHU216DAVISVP2,2013-02-12 04:40:00,
2013-02-11 23:45:00,57.5,54.9,29.89,ESE,116,0.0,4.0,91,0.00,,,0.03,WUHU216DAVISVP2,2013-02-12 04:45:00,
2013-02-11 23:50:00,57.5,54.9,29.89,ESE,116,0.0,1.0,91,0.00,,,0.03,WUHU216DAVISVP2,2013-02-12 04:50:00,
2013-02-11 23:55:00,57.8,55.2,29.89,ESE,116,0.0,0.0,91,0.00,,,0.03,WUHU216DAVISVP2,2013-02-12 04:55:00,